Location: Allonne
(49.4086°N, 2.1143°E)
Time: 21:36:34
(UTC+00:00)

UNISAT 6 - Visible Passes

Search period start: 29 November 2023 00:00
Search period end: 09 December 2023 00:00
Orbit: 598 x 673 km, 97.7° (Epoch: 29 November)

Date Brightness Start Highest point End Pass type
(mag) Time Alt. Az. Time Alt. Az. Time Alt. Az.
29 Nov ? 16:26:51 10° NNE 16:31:03 36° E 16:35:07 10° SSE visible
29 Nov ? 18:03:27 10° N 18:07:24 30° WNW 18:11:14 10° SW visible
30 Nov ? 16:48:47 10° NNE 16:53:15 58° E 16:57:36 10° S visible
30 Nov ? 18:26:02 10° NNW 18:29:18 20° WNW 18:32:30 10° WSW visible
01 Dec ? 17:10:50 10° NNE 17:15:23 87° WNW 17:19:48 10° SSW visible
01 Dec ? 18:48:59 10° NNW 18:51:07 13° NW 18:53:14 10° W visible
02 Dec ? 17:33:02 10° N 17:37:26 54° WNW 17:41:43 10° SSW visible
03 Dec ? 17:55:20 10° N 17:59:24 34° WNW 18:03:21 10° SW visible
04 Dec ? 16:40:46 10° NNE 16:45:08 48° E 16:49:21 10° S visible
04 Dec ? 18:17:48 10° NNW 18:21:16 22° WNW 18:24:41 10° WSW visible
05 Dec ? 17:02:44 10° NNE 17:07:14 80° ESE 17:11:36 10° S visible
05 Dec ? 18:40:33 10° NNW 18:43:04 15° WNW 18:45:34 10° W visible
06 Dec ? 17:24:50 10° N 17:29:16 63° WNW 17:33:33 10° SSW visible
07 Dec ? 17:47:03 10° N 17:51:12 39° WNW 17:55:15 10° SW visible
08 Dec ? 16:32:36 10° NNE 16:36:48 40° E 16:40:53 10° SSE visible
08 Dec ? 18:09:25 10° N 18:13:04 25° WNW 18:16:38 10° WSW visible
